Location: Black Creek
(40.9000°S, 175.5500°E)
Time: 09:14:35
(UTC+00:00)

Explorer 7 - Pass Details

Date: 16 November 2024
Orbit: 455 x 598 km, 50.3° (Epoch: 07 December)

Event Time Altitude Azimuth Distance (km) Brightness Sun altitude
Rises 09:56:31 0° 254° (WSW) 2,556 11.0 -23.4°
Reaches altitude 10° 09:59:47 10° 284° (WNW) 1,641 9.4 -23.7°
Enters shadow 10:00:24 11° 293° (WNW) 1,549 9.2 -23.8°
